Regional Weather Roundup
Issued by NWS Goodland, KS

Home | Current Version | Previous Version | Text Only | Print | Product List | Glossary On
Versions: 1 2 3 4 5 6 7 8 9 10 11 12 13 14 15 16 17 18 19 20 21 22 23 24 25 26 27 28 29 30 31 32 33 34 35 36 37 38 39 40 41 42 43 44 45 46 47 48 49 50
000
ASUS43 KGLD 141508
RWRGLD

GOODLAND FORECAST AREA HOURLY WEATHER ROUNDUP
NATIONAL WEATHER SERVICE GOODLAND KS
900 AM MDT MON JUL 14 2014

...OFFICIAL OBSERVATIONS...

CITY           SKY/WX    TMP DP  RH WIND       PRES   REMARKS
GOODLAND KS    SUNNY     73  63  70 N14       30.20R
HILL CITY KS   SUNNY     76  62  62 N10       30.12R
IMPERIAL NEB   MOSUNNY   70  58  65 E10       30.21R
MCCOOK NEB     MOSUNNY   69  61  75 E9        30.17R
AKRON CO       SUNNY     70  59  68 N14       30.28R
BURLINGTON CO  SUNNY     76  63  64 N15       30.22R
LIMON CO       SUNNY     73  60  63 N16       30.30R
$$

...UNOFFICIAL OBSERVATIONS...

CITY           SKY/WX    TMP DP  RH WIND       PRES   REMARKS
COLBY KS       SUNNY     73  66  78 N9        30.19R
GOVE KS          N/A     79  32  18 CALM        N/A
LENORA KS        N/A     73  32  22 MISG        N/A
OBERLIN KS     FAIR      73  59  60 E12G17    30.16
SHARON SPRINGS   N/A     76  67  72 E14         N/A
ST FRANCIS KS  SUNNY     72  61  68 NE13      30.19R
TRIBUNE KS     SUNNY     75 N/A N/A W7        30.19
WAKEENEY KS      N/A     80  58  46 MISG        N/A
TRENTON NEB      N/A     70  32  24 E10         N/A
KIT CARSON CO    N/A     80  64  58 N7          N/A
WRAY CO        FAIR      72  61  68 NE6       30.23
YUMA CO          N/A     70  60  70 NE12        N/A
$$



USA.gov is the U.S. government's official web portal to all federal, state and local government web resources and services.